Location: Kelshall
(52.0000°N, 0.0500°W)
Time: 22:50:42
(UTC+00:00)

Cosmos 1536 Rocket - Pass Details

Date: 18 September 2020
Orbit: 606 x 631 km, 82.5° (Epoch: 20 October)

Event Time Altitude Azimuth Distance (km) Brightness Sun altitude
Rises 20:08:07 0° 345° (NNW) 2,914 7.7 -18.7°
Reaches altitude 10° 20:10:23 10° 341° (NNW) 2,007 6.8 -19.0°
Maximum altitude 20:14:43 54° 265° (W) 768 4.3 -19.6°
Enters shadow 20:18:27 14° 191° (S) 1,772 5.7 -20.0°
